STARLINK-1347, 45586

Orbit data source: Space-Track

STARLINK-1347, 45586 is a payload satellite owned by SpaceX/Seattle (US) in LEO that was launched on Wed, 22 Apr 2020 UTC via an FALCON 9 launch vehicle from the Air Force Eastern Test Range (AFETR). Payload-class satellites include a variety of spacecraft equipped with specific instruments for various scientific and technological missions. These include communications satellites like Starlink; space stations such as the ISS; scientific satellites like the Hubble; Earth observation satellites from companies like Planet Labs, Umbra, and HawkEye 360; GPS; miniature CubeSats for education and research; and military/defense satellites.

Loading next visibility...
Identifier
45586, 2020-025BH
Orbit
LEO
Country
Flag of USUS
Related business
Manufacturer
SpaceX/Seattle
Mission
Partially operational Commercial Communications
Bus & Motor
STARLINK, Unknown motor
Mass
260 kg wet, ~248 kg dry
Launch date (UTC)
2020-04-22 (6 years ago)
Launch vehicle
FALCON 9
Launch site
Air Force Eastern Test Range (AFETR)
Object type
Payload
Rocket body
Debris
Shape & HBR
Box + 1 Pan, 10.1 m
Radar Cross Section
13.562 m², Large (>1 m²)

Expand to show TLE details & history
Last TLE update: 8 hours ago

TLE from 8 hours ago
0 STARLINK-1347
1 45586U 20025BH  26150.96700138  .00065390  00000-0  58966-3 0  9995
2 45586  53.0392 347.4594 0003574 113.3108 246.8284 15.67569201339027
Epoch: 2026-05-30T23:12Z
TLE epoch observation values (Epoch: 2026-05-30T23:12:28.919Z)
Latitude
0.00001°
Longitude
110.86347°
Altitude
367.71 km
Speed
7.69 km/s
True Right ascension
23h 09m 50s
True Declination
0° 00' 00"
Sunlit
Object was in daylight at epoch
Visualization orbit readout
Latitude
Unknown
Longitude
Unknown
Altitude
Unknown
Speed
Unknown
Apparent Right ascension
Unknown
Apparent Declination
Unknown
Sunlit
N/A
Visualization observer readout
Local Sidereal Time
17:05:17
Azimuth
Unknown
Elevation
Unknown
Doppler factor
Unknown
Orbital elements
Apogee altitude
368.551 km
Perigee altitude
363.73 km
Semi-major axis
6,744.277 km
Eccentricity
0.00036
Inclination
53.0392°
RAAN
347.4594°
Arg. of periapsis
113.3108°
True anomaly
246.79076°
Mean anomaly
246.8284°
Eccentric anomaly
246.80958°
Mean motion
3.91868 °/min
Orbital period
91.87 mins
BSTAR
0.00058966
Loading maneuver chart data...
Computing Atmospheric mass density...

Documentation

Showing up to 5 results
|